| time (UTC) | temp F | wind direction | speed MPH | gust MPH | rain 1hr in | rain 24hr in | rain mn in | humidity % | barometer mb |
| 20260903043036 | 70 | 230 | 3.0 | 10.0 | 0.00 | 0.26 | 0.00 | 94 | 1011.3 |
| 20260903041535 | 70 | 248 | 4.0 | 8.0 | 0.00 | 0.26 | 0.00 | 94 | 1011.3 |
| 20260903040033 | 70 | 250 | 4.0 | 9.0 | 0.00 | 0.26 | 0.00 | 94 | 1011.4 |
| 20260903034537 | 70 | 240 | 2.0 | 8.0 | 0.00 | 0.26 | 0.26 | 95 | 1011.2 |
| 20260903033038 | 70 | 276 | 3.0 | 12.0 | 0.00 | 0.26 | 0.26 | 95 | 1011.1 |
| 20260903031534 | 70 | 246 | 5.0 | 12.0 | 0.00 | 0.26 | 0.26 | 95 | 1011.1 |
| 20260903030031 | 70 | 268 | 7.0 | 11.0 | 0.01 | 0.26 | 0.26 | 96 | 1011.1 |
| 20260903024530 | 70 | 242 | 8.0 | 15.0 | 0.05 | 0.26 | 0.26 | 97 | 1011.2 |
| 20260903023028 | 70 | 237 | 7.0 | 20.0 | 0.17 | 0.26 | 0.26 | 96 | 1010.8 |
| 20260903021535 | 71 | 229 | 12.0 | 21.0 | 0.23 | 0.26 | 0.26 | 97 | 1010.7 |
| 20260903020027 | 71 | 239 | 6.0 | 15.0 | 0.23 | 0.25 | 0.25 | 98 | 1010.7 |
| 20260903014526 | 71 | 159 | 7.0 | 18.0 | 0.19 | 0.21 | 0.21 | 97 | 1010.8 |
| 20260903013025 | 71 | 221 | 8.0 | 19.0 | 0.07 | 0.09 | 0.09 | 96 | 1011.2 |
| 20260903011522 | 73 | 214 | 7.0 | 12.0 | 0.01 | 0.03 | 0.03 | 93 | 1010.7 |
| 20260903010022 | 73 | 131 | 5.0 | 10.0 | 0.01 | 0.02 | 0.02 | 92 | 1010.0 |
| 20260903004527 | 73 | 160 | 2.0 | 5.0 | 0.02 | 0.02 | 0.02 | 93 | 1010.7 |
| 20260903003018 | 73 | 214 | 1.0 | 3.0 | 0.02 | 0.02 | 0.02 | 93 | 1010.9 |
| 20260903001517 | 73 | 207 | 0.0 | 3.0 | 0.02 | 0.02 | 0.02 | 92 | 1010.8 |
| 20260903000017 | 74 | 214 | 0.0 | 2.0 | 0.01 | 0.01 | 0.01 | 90 | 1010.8 |
| 20260902234517 | 75 | 235 | 0.0 | 5.0 | 0.00 | 0.00 | 0.00 | 88 | 1011.0 |
| 20260902233015 | 75 | 224 | 2.0 | 6.0 | 0.00 | 0.00 | 0.00 | 87 | 1011.5 |
| 20260902231518 | 75 | 193 | 1.0 | 3.0 | 0.00 | 0.00 | 0.00 | 87 | 1011.3 |
| 20260902230013 | 76 | 214 | 1.0 | 5.0 | 0.00 | 0.00 | 0.00 | 86 | 1011.1 |
| 20260902224513 | 76 | 191 | 1.0 | 5.0 | 0.00 | 0.00 | 0.00 | 86 | 1010.9 |
| 20260902223013 | 76 | 147 | 3.0 | 6.0 | 0.00 | 0.00 | 0.00 | 86 | 1010.8 |
| 20260902221516 | 76 | 149 | 1.0 | 5.0 | 0.00 | 0.00 | 0.00 | 86 | 1010.9 |
| 20260902220009 | 76 | 162 | 1.0 | 5.0 | 0.00 | 0.00 | 0.00 | 86 | 1011.1 |
| 20260902214507 | 76 | 161 | 2.0 | 6.0 | 0.00 | 0.00 | 0.00 | 86 | 1011.4 |
| 20260902213006 | 77 | 124 | 0.0 | 5.0 | 0.00 | 0.00 | 0.00 | 85 | 1011.6 |
| 20260902211505 | 77 | 154 | 2.0 | 6.0 | 0.00 | 0.00 | 0.00 | 83 | 1011.7 |
| 20260902210001 | 77 | 204 | 2.0 | 8.0 | 0.00 | 0.00 | 0.00 | 82 | 1012.5 |
| 20260902204600 | 78 | 210 | 4.0 | 11.0 | 0.00 | 0.00 | 0.00 | 81 | 1012.9 |
| 20260902203059 | 78 | 224 | 6.0 | 10.0 | 0.00 | 0.00 | 0.00 | 80 | 1013.2 |
| 20260902201559 | 78 | 175 | 3.0 | 10.0 | 0.00 | 0.00 | 0.00 | 80 | 1012.9 |
| 20260902200057 | 78 | 214 | 5.0 | 12.0 | 0.00 | 0.00 | 0.00 | 78 | 1013.3 |
| 20260902194556 | 79 | 227 | 5.0 | 11.0 | 0.00 | 0.00 | 0.00 | 78 | 1013.4 |
| 20260902193057 | 79 | 224 | 7.0 | 12.0 | 0.00 | 0.00 | 0.00 | 78 | 1013.5 |
| 20260902191601 | 79 | 239 | 11.0 | 20.0 | 0.00 | 0.00 | 0.00 | 77 | 1013.4 |
| 20260902190057 | 80 | 161 | 9.0 | 17.0 | 0.00 | 0.00 | 0.00 | 76 | 1013.6 |
| 20260902184617 | 79 | 245 | 7.0 | 17.0 | 0.00 | 0.00 | 0.00 | 76 | 1013.4 |
| 20260902183111 | 79 | 224 | 8.0 | 15.0 | 0.00 | 0.00 | 0.00 | 76 | 1013.4 |
| 20260902181552 | 79 | 236 | 9.0 | 15.0 | 0.00 | 0.00 | 0.00 | 76 | 1014.0 |
| 20260902180051 | 79 | 248 | 6.0 | 12.0 | 0.00 | 0.00 | 0.00 | 75 | 1013.4 |
| 20260902174549 | 78 | 220 | 5.0 | 10.0 | 0.00 | 0.00 | 0.00 | 77 | 1013.8 |
| 20260902173048 | 79 | 244 | 5.0 | 14.0 | 0.00 | 0.00 | 0.00 | 76 | 1014.2 |
| 20260902171548 | 80 | 192 | 8.0 | 13.0 | 0.00 | 0.00 | 0.00 | 75 | 1014.4 |
| 20260902170045 | 79 | 226 | 7.0 | 14.0 | 0.00 | 0.00 | 0.00 | 79 | 1014.1 |
| 20260902164542 | 78 | 230 | 7.0 | 18.0 | 0.00 | 0.00 | 0.00 | 80 | 1014.2 |
| 20260902163052 | 78 | 152 | 10.0 | 16.0 | 0.00 | 0.00 | 0.00 | 82 | 1014.2 |
| 20260902161538 | 78 | 209 | 8.0 | 19.0 | 0.00 | 0.00 | 0.00 | 83 | 1014.5 |
| 20260902160037 | 78 | 200 | 10.0 | 17.0 | 0.00 | 0.00 | 0.00 | 83 | 1014.4 |
| 20260902154534 | 75 | 225 | 10.0 | 19.0 | 0.00 | 0.00 | 0.00 | 87 | 1014.4 |
| 20260902153031 | 75 | 205 | 8.0 | 17.0 | 0.00 | 0.00 | 0.00 | 89 | 1014.5 |
| 20260902151529 | 75 | 207 | 3.0 | 10.0 | 0.00 | 0.00 | 0.00 | 89 | 1014.6 |
| 20260902150029 | 75 | 162 | 4.0 | 10.0 | 0.00 | 0.00 | 0.00 | 87 | 1014.6 |
| 20260902144535 | 75 | 141 | 4.0 | 8.0 | 0.00 | 0.00 | 0.00 | 87 | 1014.6 |
| 20260902143027 | 75 | 124 | 1.0 | 9.0 | 0.00 | 0.00 | 0.00 | 89 | 1014.6 |
| 20260902141530 | 74 | 129 | 3.0 | 7.0 | 0.00 | 0.00 | 0.00 | 88 | 1014.8 |
| 20260902140032 | 73 | 75 | 0.0 | 4.0 | 0.00 | 0.00 | 0.00 | 90 | 1015.1 |
| 20260902134520 | 72 | 70 | 1.0 | 5.0 | 0.00 | 0.00 | 0.00 | 92 | 1015.2 |
| 20260902133016 | 71 | 121 | 2.0 | 6.0 | 0.00 | 0.00 | 0.00 | 92 | 1015.4 |
| 20260902131514 | 70 | 133 | 0.0 | 3.0 | 0.00 | 0.00 | 0.00 | 94 | 1015.5 |
| 20260902130110 | 69 | 117 | 1.0 | 3.0 | 0.00 | 0.00 | 0.00 | 96 | 1015.0 |
| 20260902124507 | 67 | 100 | 0.0 | 1.0 | 0.00 | 0.02 | 0.00 | 96 | 1015.5 |
| 20260902123005 | 67 | 160 | 0.0 | 1.0 | 0.00 | 0.02 | 0.00 | 96 | 1015.8 |
| 20260902121504 | 67 | 92 | 0.0 | 1.0 | 0.00 | 0.02 | 0.00 | 96 | 1015.8 |
| 20260902120004 | 67 | 65 | 0.0 | 2.0 | 0.00 | 0.21 | 0.00 | 96 | 1015.7 |
| 20260902114503 | 67 | 144 | 0.0 | 3.0 | 0.00 | 0.21 | 0.00 | 96 | 1015.5 |
| 20260902113002 | 67 | 229 | 0.0 | 6.0 | 0.00 | 0.21 | 0.00 | 96 | 1015.4 |
| 20260902111555 | 66 | 150 | 3.0 | 6.0 | 0.00 | 0.21 | 0.00 | 97 | 1015.0 |
| 20260902110054 | 65 | 139 | 2.0 | 5.0 | 0.00 | 0.21 | 0.00 | 98 | 1014.6 |
| 20260902104556 | 65 | 91 | 0.0 | 3.0 | 0.00 | 0.22 | 0.00 | 98 | 1014.6 |
| 20260902103100 | 65 | 81 | 0.0 | 2.0 | 0.00 | 0.22 | 0.00 | 97 | 1014.9 |
| 20260902101548 | 65 | 97 | 0.0 | 1.0 | 0.00 | 0.22 | 0.00 | 97 | 1015.4 |
| 20260902100104 | 65 | 104 | 0.0 | 1.0 | 0.00 | 0.22 | 0.00 | 97 | 1015.7 |
| 20260902094547 | 65 | 100 | 0.0 | 2.0 | 0.00 | 0.39 | 0.00 | 97 | 1015.7 |
| 20260902093046 | 65 | 103 | 0.0 | 1.0 | 0.00 | 0.39 | 0.00 | 97 | 1015.5 |
| 20260902091604 | 65 | 85 | 0.0 | 2.0 | 0.00 | 0.39 | 0.00 | 97 | 1015.5 |
| 20260902090045 | 65 | 83 | 1.0 | 3.0 | 0.00 | 0.39 | 0.00 | 96 | 1015.5 |
| 20260902084545 | 65 | 115 | 0.0 | 3.0 | 0.00 | 0.81 | 0.00 | 96 | 1015.9 |
| 20260902083042 | 65 | 131 | 0.0 | 3.0 | 0.00 | 0.81 | 0.00 | 96 | 1016.0 |
| 20260902081541 | 65 | 135 | 1.0 | 3.0 | 0.00 | 0.81 | 0.00 | 96 | 1016.0 |
| 20260902080055 | 66 | 119 | 0.0 | 0.0 | 0.00 | 0.81 | 0.00 | 97 | 1015.8 |
| 20260902074540 | 66 | 101 | 0.0 | 0.0 | 0.00 | 1.29 | 0.00 | 97 | 1015.8 |
| 20260902073039 | 66 | 147 | 0.0 | 0.0 | 0.00 | 1.29 | 0.00 | 97 | 1015.8 |
| 20260902071554 | 66 | 151 | 0.0 | 0.0 | 0.00 | 1.29 | 0.00 | 96 | 1015.7 |
| 20260902070037 | 66 | 151 | 0.0 | 0.0 | 0.00 | 1.29 | 0.00 | 96 | 1015.7 |
| 20260902064536 | 66 | 151 | 0.0 | 0.0 | 0.00 | 1.48 | 0.00 | 95 | 1015.7 |
| 20260902063043 | 65 | 151 | 0.0 | 0.0 | 0.00 | 1.48 | 0.00 | 95 | 1016.0 |
| 20260902061544 | 64 | 157 | 0.0 | 0.0 | 0.00 | 1.48 | 0.00 | 93 | 1016.0 |
| 20260902060035 | 64 | 145 | 0.0 | 0.0 | 0.00 | 1.48 | 0.00 | 94 | 1015.8 |
| 20260902054541 | 63 | 145 | 0.0 | 0.0 | 0.00 | 1.49 | 0.00 | 94 | 1015.9 |
| 20260902053030 | 64 | 150 | 0.0 | 0.0 | 0.00 | 1.49 | 0.00 | 93 | 1015.9 |
| 20260902051530 | 64 | 151 | 0.0 | 0.0 | 0.00 | 1.49 | 0.00 | 92 | 1016.0 |
| 20260902050032 | 65 | 233 | 0.0 | 0.0 | 0.00 | 1.49 | 0.00 | 90 | 1015.8 |
| 20260902044530 | 65 | 233 | 0.0 | 0.0 | 0.00 | 1.49 | 0.00 | 89 | 1015.7 |